BV5AB-13 Weather Reports


time (UTC)temp
C
wind
direction
speed
KPH
gust
KPH
rain 1hr
cm
rain 24hr
cm
rain mn
cm
humidity
%
barometer
mb
20260504110703 21 340 3.2 19.3 0.15 0.25 0.25 89 1004.7
20260504081704 26 350 6.4 17.7 0.00 0.00 0.00 54 1002.7
20260504080703 26 330 4.8 20.9 0.00 0.00 0.00 53 1002.6
20260504050704 27 320 8.0 29.0 0.00 0.00 0.00 51 1003.4
20260504045704 27 340 6.4 29.0 0.00 0.00 0.00 52 1003.5
20260504044704 27 350 8.0 29.0 0.00 0.00 0.00 52 1003.6
20260504043704 27 0 8.0 29.0 0.00 0.00 0.00 51 1003.5
20260504042704 27 0 12.9 29.0 0.00 0.00 0.00 55 1003.7
20260504041703 27 350 6.4 29.0 0.00 0.00 0.00 55 1003.7
20260504040703 26 350 11.3 29.0 0.00 0.00 0.00 54 1003.7
20260504035703 26 350 12.9 29.0 0.00 0.00 0.00 60 1003.9
20260504034704 26 350 12.9 29.0 0.00 0.00 0.00 59 1004.1
20260504033703 26 10 11.3 29.0 0.00 0.00 0.00 60 1004.0
20260504032704 25 10 11.3 29.0 0.00 0.00 0.00 60 1003.9
20260504031704 25 0 9.7 29.0 0.00 0.00 0.00 62 1004.2
20260504030703 25 10 9.7 35.4 0.00 0.00 0.00 63 1004.3
20260504025703 24 0 9.7 35.4 0.00 0.00 0.00 65 1004.2
20260504024703 24 0 9.7 35.4 0.00 0.00 0.00 65 1004.0
20260504023704 23 350 12.9 35.4 0.00 0.00 0.00 66 1003.8
20260504022704 24 0 9.7 35.4 0.00 0.00 0.00 65 1003.7
20260504021703 24 10 17.7 35.4 0.00 0.00 0.00 65 1003.7
20260504020704 25 0 14.5 27.4 0.00 0.00 0.00 64 1003.9
20260504015703 26 10 9.7 27.4 0.00 0.00 0.00 62 1003.8
20260504014703 25 0 11.3 27.4 0.00 0.00 0.00 63 1004.1
20260504013704 25 340 14.5 27.4 0.00 0.00 0.00 63 1004.0
20260504012704 26 350 11.3 27.4 0.00 0.00 0.00 61 1004.1
20260504011703 25 10 16.1 27.4 0.00 0.00 0.00 63 1004.1
20260504010704 25 10 11.3 20.9 0.00 0.00 0.00 63 1004.0
20260504005704 25 10 14.5 20.9 0.00 0.00 0.00 64 1003.8
20260504004704 25 10 9.7 20.9 0.00 0.00 0.00 64 1003.7
20260504003704 25 340 9.7 20.9 0.00 0.00 0.00 65 1003.7
20260504002703 25 350 8.0 20.9 0.00 0.00 0.00 67 1003.5
20260504001703 25 320 6.4 20.9 0.00 0.00 0.00 68 1003.5
20260504000703 25 0 8.0 16.1 0.00 0.00 0.00 68 1003.3
20260503235704 25 350 9.7 16.1 0.00 0.00 0.00 70 1003.6
20260503234703 24 0 6.4 16.1 0.00 0.00 0.00 71 1003.5
20260503233704 24 340 9.7 16.1 0.00 0.00 0.00 72 1003.8
20260503232704 24 340 6.4 16.1 0.00 0.00 0.00 73 1003.8
20260503231703 24 330 4.8 16.1 0.00 0.00 0.00 74 1003.7
20260503230703 24 330 4.8 14.5 0.00 0.00 0.00 74 1003.5
20260503225704 25 310 3.2 14.5 0.00 0.00 0.00 74 1003.3
20260503224703 24 0 3.2 14.5 0.00 0.00 0.00 75 1003.2
20260503223703 24 350 3.2 14.5 0.00 0.00 0.00 75 1003.3
20260503222703 24 330 3.2 14.5 0.00 0.00 0.00 75 1003.3
20260503221704 24 0 6.4 14.5 0.00 0.00 0.00 76 1003.3
20260503220711 24 350 8.0 20.9 0.00 0.00 0.00 76 1003.4
20260503215703 23 10 6.4 20.9 0.00 0.00 0.00 76 1003.2
20260503214703 23 0 6.4 20.9 0.00 0.00 0.00 76 1003.3
20260503213704 23 0 4.8 20.9 0.00 0.00 0.00 76 1003.1
20260503212704 23 10 6.4 20.9 0.00 0.00 0.00 76 1003.1
20260503211703 23 0 6.4 20.9 0.00 0.00 0.00 76 1003.2
20260503210704 23 350 6.4 17.7 0.00 0.00 0.00 76 1003.2
20260503205704 23 0 6.4 17.7 0.00 0.00 0.00 76 1003.1
20260503204703 24 350 6.4 17.7 0.00 0.00 0.00 77 1003.0
20260503203703 24 0 8.0 17.7 0.00 0.00 0.00 79 1002.9
20260503202703 24 340 6.4 17.7 0.00 0.00 0.00 79 1002.9
20260503201704 25 350 6.4 17.7 0.00 0.00 0.00 80 1002.7
20260503200703 25 0 6.4 16.1 0.00 0.00 0.00 80 1002.4
20260503195703 25 0 8.0 16.1 0.00 0.00 0.00 80 1002.3
20260503194703 25 350 8.0 16.1 0.00 0.00 0.00 81 1002.3
20260503193703 25 0 4.8 16.1 0.00 0.00 0.00 81 1002.3
20260503192703 25 350 6.4 16.1 0.00 0.00 0.00 81 1002.3
20260503191703 25 350 6.4 16.1 0.00 0.00 0.00 80 1002.2
20260503190703 25 0 6.4 16.1 0.00 0.00 0.00 80 1002.3
20260503185703 25 0 6.4 16.1 0.00 0.00 0.00 80 1002.3
20260503184704 25 0 4.8 16.1 0.00 0.00 0.00 80 1002.3
20260503183703 25 330 4.8 16.1 0.00 0.00 0.00 80 1002.5
20260503182704 25 330 4.8 16.1 0.00 0.00 0.00 80 1002.4
20260503181703 25 0 4.8 16.1 0.00 0.00 0.00 80 1002.3
20260503180703 25 0 6.4 20.9 0.00 0.00 0.00 81 1002.3
20260503175704 25 0 4.8 20.9 0.00 0.00 0.00 82 1002.4
20260503174703 25 350 4.8 20.9 0.00 0.00 0.00 82 1002.5
20260503173703 25 10 6.4 20.9 0.00 0.00 0.00 83 1002.4
20260503172707 25 350 6.4 20.9 0.00 0.00 0.00 83 1002.5
20260503171704 25 340 6.4 20.9 0.00 0.00 0.00 82 1002.7
20260503170704 25 350 6.4 22.5 0.00 0.00 0.00 81 1002.6
20260503150703 26 0 6.4 14.5 0.00 0.00 0.00 84 1002.7
20260503130704 28 330 1.6 11.3 0.00 0.00 0.00 77 1001.3